Aurora, OR

9:41 AM PDT on March 27, 2017 (GMT -0700)
Aurora State

Weather History for KUAO - November, 2012

Change the Weather History Date:

Saturday, November 10, 2012

  Actual Average Record
Temperature  
Mean Temperature 40 °F -  
Max Temperature 46 °F - 60 °F (1997)
Min Temperature 34 °F - 33 °F (2001)
Degree Days  
Heating Degree Days 25    
Month to date heating degree days 134  
Since 1 July heating degree days 565  
Cooling Degree Days 0    
Month to date cooling degree days 0  
Year to date cooling degree days 295  
Moisture  
Dew Point 37 °F    
Average Humidity 83    
Maximum Humidity 100    
Minimum Humidity 65    
Precipitation  
Precipitation 0.00 in - 1.00 in (1962)
Month to date precipitation 0.97  
Year to date precipitation 37.69  
Sea Level Pressure  
Sea Level Pressure 30.10 in    
Wind  
Wind Speed 1 mph (SW)    
Max Wind Speed 6 mph    
Max Gust Speed 9 mph    
Visibility 7 miles    
Events Fog    
T = Trace of Precipitation, MM = Missing Value Source: NWS Daily Summary

Daily Weather History Graph

Daily Weather History Graph

Search for Another Location

Airport or City:

Trip Planner

Search our weather history database for the weather conditions in past years. The results will help you decide how hot, cold, wet, or windy it might be!

Date:

Astronomy

Nov. 10, 2012 Rise Set
Actual Time 7:03 AM PST 4:46 PM PST
Civil Twilight 6:31 AM PST 5:17 PM PST
Nautical Twilight 5:56 AM PST 5:53 PM PST
Astronomical Twilight 5:21 AM PST 6:27 PM PST
Moon 3:05 AM PST (11/10) 2:43 PM PST (11/10)
Length of Visible Light 10h 45m
Length of Day
9h 42m
Waning Crescent, 13% of the Moon is Illuminated
Nov 10
Waning Crescent
Nov 13
New
Nov 20
First Quarter
Nov 28
Full
Dec 6
Last Quarter

Hourly Weather History & Observations

Time (PST) Temp. Windchill Dew Point Humidity Pressure Visibility Wind Dir Wind Speed Gust Speed Precip Events Conditions
12:20 AM 39.2 °F 37.0 °F 37.4 °F 93% 29.95 in 10.0 mi SW 3.5 mph - N/A   Overcast
12:53 AM 39.9 °F - 37.9 °F 93% 29.97 in 10.0 mi Calm Calm - N/A   Overcast
1:17 AM 39.2 °F - 37.4 °F 93% 29.97 in 9.0 mi Calm Calm - N/A   Overcast
1:53 AM 39.0 °F - 37.0 °F 93% 29.99 in 8.0 mi Calm Calm - N/A   Overcast
2:22 AM 37.4 °F - 37.4 °F 100% 29.99 in 7.0 mi Calm Calm - N/A   Mostly Cloudy
2:53 AM 39.0 °F - 37.0 °F 93% 30.00 in 9.0 mi Calm Calm - N/A   Overcast
3:53 AM 37.9 °F - 37.0 °F 97% 30.01 in 6.0 mi Calm Calm - N/A   Overcast
4:53 AM 36.0 °F - 36.0 °F 100% 30.02 in 3.0 mi Calm Calm - N/A   Mostly Cloudy
5:00 AM 35.6 °F - 35.6 °F 100% 30.02 in 2.5 mi Calm Calm - N/A   Scattered Clouds
5:14 AM 35.6 °F - 35.6 °F 100% 30.03 in 1.5 mi Calm Calm - N/A   Partly Cloudy
5:23 AM 35.6 °F - 33.8 °F 93% 30.03 in 2.5 mi Calm Calm - N/A   Mostly Cloudy
5:35 AM 35.6 °F - 35.6 °F 100% 30.03 in 0.8 mi Calm Calm - N/A   Mist
5:53 AM 37.0 °F - 37.0 °F 100% 30.05 in 1.0 mi Calm Calm - N/A   Mist
6:09 AM 35.6 °F - 35.6 °F 100% 30.04 in 0.5 mi Calm Calm - N/A Fog Fog
6:29 AM 37.4 °F 33.8 °F 35.6 °F 93% 30.04 in 2.0 mi SE 4.6 mph - N/A   Overcast
6:37 AM 37.4 °F 34.9 °F 35.6 °F 93% 30.04 in 5.0 mi ESE 3.5 mph - N/A   Overcast
6:53 AM 37.0 °F - 37.0 °F 100% 30.06 in 5.0 mi Calm Calm - N/A   Overcast
7:17 AM 37.4 °F - 35.6 °F 93% 30.07 in 6.0 mi Calm Calm - N/A   Overcast
7:27 AM 37.4 °F 33.8 °F 37.4 °F 100% 30.07 in 1.8 mi SW 4.6 mph - N/A   Overcast
7:31 AM 35.6 °F 32.8 °F 35.6 °F 100% 30.08 in 0.8 mi WSW 3.5 mph - N/A   Overcast
7:53 AM 37.0 °F - 37.0 °F 100% 30.09 in 0.2 mi Calm Calm - N/A Fog Fog
8:00 AM 37.4 °F - 37.4 °F 100% 30.08 in 0.5 mi Calm Calm - N/A Fog Fog
8:18 AM 37.4 °F - 37.4 °F 100% 30.08 in 1.5 mi Calm Calm - N/A   Overcast
8:33 AM 37.4 °F - 37.4 °F 100% 30.08 in 3.0 mi Calm Calm - N/A   Overcast
8:49 AM 37.4 °F 34.9 °F 37.4 °F 100% 30.09 in 6.0 mi SW 3.5 mph - N/A   Overcast
8:53 AM 37.9 °F 35.5 °F 37.0 °F 97% 30.10 in 6.0 mi SSW 3.5 mph - N/A   Overcast
9:53 AM 39.0 °F - 37.0 °F 93% 30.12 in 5.0 mi Calm Calm - N/A   Overcast
10:41 AM 39.2 °F 37.0 °F 37.4 °F 93% 30.12 in 8.0 mi WSW 3.5 mph - N/A   Overcast
10:53 AM 39.9 °F - 37.0 °F 89% 30.13 in 7.0 mi Calm Calm - N/A   Overcast
11:39 AM 41.0 °F 38.0 °F 37.4 °F 87% 30.13 in 10.0 mi WSW 4.6 mph - N/A   Overcast
11:49 AM 41.0 °F 38.0 °F 37.4 °F 87% 30.13 in 10.0 mi West 4.6 mph - N/A   Overcast
11:53 AM 41.0 °F 38.0 °F 37.0 °F 86% 30.14 in 10.0 mi Variable 4.6 mph - N/A   Overcast
12:19 PM 42.8 °F 40.1 °F 37.4 °F 81% 30.14 in 10.0 mi Variable 4.6 mph - N/A   Overcast
12:45 PM 42.8 °F - 37.4 °F 81% 30.14 in 10.0 mi Calm Calm - N/A   Overcast
12:53 PM 42.1 °F - 37.0 °F 82% 30.15 in 10.0 mi Calm Calm - N/A   Overcast
1:01 PM 42.8 °F 41.1 °F 37.4 °F 81% 30.14 in 10.0 mi Variable 3.5 mph - N/A   Overcast
1:22 PM 42.8 °F 41.1 °F 37.4 °F 81% 30.15 in 10.0 mi Variable 3.5 mph - N/A   Overcast
1:53 PM 45.0 °F - 37.9 °F 76% 30.14 in 10.0 mi Calm Calm - N/A   Overcast
2:16 PM 44.6 °F 43.1 °F 37.4 °F 76% 30.14 in 10.0 mi SSE 3.5 mph - N/A   Scattered Clouds
2:48 PM 46.4 °F - 35.6 °F 66% 30.14 in 10.0 mi Calm Calm - N/A   Mostly Cloudy
2:53 PM 46.0 °F 44.8 °F 36.0 °F 68% 30.14 in 10.0 mi Variable 3.5 mph - N/A   Mostly Cloudy
3:14 PM 46.4 °F 45.2 °F 35.6 °F 66% 30.15 in 10.0 mi SW 3.5 mph - N/A   Overcast
3:53 PM 45.0 °F - 37.0 °F 74% 30.16 in 10.0 mi Calm Calm - N/A   Mostly Cloudy
4:53 PM 42.1 °F - 37.0 °F 82% 30.17 in 9.0 mi Calm Calm - N/A   Clear
5:53 PM 39.0 °F - 37.0 °F 93% 30.18 in 4.0 mi Calm Calm - N/A   Clear
6:53 PM 37.9 °F - 36.0 °F 93% 30.20 in 6.0 mi Calm Calm - N/A   Clear
7:28 PM 39.2 °F 35.0 °F 35.6 °F 87% 30.19 in 10.0 mi NE 5.8 mph - N/A   Mostly Cloudy
8:23 PM 37.4 °F - 35.6 °F 93% 30.20 in 9.0 mi Calm Calm - N/A   Partly Cloudy
8:53 PM 39.0 °F - 36.0 °F 89% 30.21 in 10.0 mi Calm Calm - N/A   Scattered Clouds
9:02 PM 39.2 °F - 35.6 °F 87% 30.21 in 10.0 mi Calm Calm - N/A   Mostly Cloudy
9:53 PM 39.0 °F - 36.0 °F 89% 30.23 in 10.0 mi Calm Calm - N/A   Overcast
10:20 PM 37.4 °F - 35.6 °F 93% 30.23 in 10.0 mi Calm Calm - N/A   Scattered Clouds
10:53 PM 37.0 °F - 35.1 °F 93% 30.23 in 10.0 mi Calm Calm - N/A   Scattered Clouds
11:53 PM 36.0 °F - 33.1 °F 89% 30.24 in 10.0 mi Calm Calm - N/A   Partly Cloudy